[[{"header":{"parameterUnit":"m.s-1","parameterCategory":1,"la1":30.2991,"la2":30.254,"lo1":-89.0895,"lo2":-89.0444,"dy":0.0017,"dx":0.0017,"nx":28,"ny":28,"refTime":"2024-02-05T03:00:00:Z","depth":0,"parameterNumber":2,"parameterNumberName":"U-component_of_WINDS"},"data":[0,0,0,0,0,0,0,0,0,0,0,0,0,0,0,0,0,0,0,0,0,0,0,0,0,0,0,0,0,0,0,0,0,0,0,0,0,0,0,0,0,0,0,0,0,0,0,0,0,0,0,0,0,0,0,0,0,0,2.2722,2.2722,0,2.2746,2.2746,2.2746,2.2729,2.2728,2.2727,2.2727,2.275,2.2752,2.2753,0,0,0,0,0,0,0,0,0,0,0,0,0,2.266,2.2661,2.2722,2.2722,2.2722,2.2746,2.2746,2.2746,2.2729,2.2728,2.2727,2.2726,2.275,2.2752,2.2753,0,0,0,0,0,0,0,0,0,0,0,0,0,2.2685,2.2661,2.2722,2.2716,2.2716,2.2746,2.2746,2.2746,2.2729,2.2728,2.2727,2.2726,2.2749,2.2751,2.2753,2.2789,0,0,2.276,2.276,0,0,0,0,0,0,0,0,2.2684,2.2688,2.2717,2.2717,2.2717,2.2733,2.2733,2.2761,2.273,2.2724,2.2727,2.2725,2.2746,2.2748,2.2755,2.279,2.2791,2.276,2.2761,2.2762,2.2762,0,0,0,0,0,0,0,2.2682,2.2687,2.2731,2.2717,2.2717,2.2713,2.2715,2.2738,2.2741,2.2725,2.2724,2.2727,2.2745,2.2753,2.2755,2.2791,2.276,2.2761,2.2763,2.2763,2.2856,2.2858,0,0,0,0,0,0,2.2681,2.2685,2.273,2.2732,2.2697,2.2715,2.2717,2.2729,2.2741,2.2741,2.2728,2.2726,2.275,2.2753,2.2756,2.2798,2.2762,2.2764,2.2765,2.2855,2.2857,2.2858,0,0,0,0,0,0,2.268,2.2685,2.2729,2.2708,2.2713,2.2717,2.273,2.273,2.2738,2.2743,2.2743,2.2735,2.2749,2.2753,2.2781,2.2798,2.2765,2.2766,2.2854,2.2856,2.2857,2.2882,0,0,0,0,0,0,2.2678,2.2685,2.2698,2.2709,2.2715,2.2754,2.2731,2.2731,2.2741,2.2739,2.275,2.2751,2.2749,2.2778,2.2783,2.28,2.2768,2.2852,2.2854,2.2857,2.2879,2.2884,2.2888,0,0,0,0,0,2.2676,2.2704,2.2699,2.2705,2.2732,2.2755,2.2758,2.2756,2.2743,2.2756,2.276,2.275,2.2796,2.2781,2.2786,2.2805,2.2851,2.2854,2.2857,2.2877,2.2883,2.2888,0,0,0,0,0,0,2.2695,2.2705,2.27,2.2733,2.2743,2.2752,2.2769,2.2762,2.2777,2.2774,2.277,2.2772,2.2801,2.2806,2.2789,2.284,2.2821,2.2825,2.2835,2.2841,2.2845,2.2843,2.277,0,0,0,0,0,2.2704,2.2722,2.273,2.2758,2.2763,2.2765,2.2775,2.2773,2.2783,2.2787,2.2793,2.2803,2.282,2.2831,2.2847,2.288,2.2882,2.2896,2.29,2.2904,2.2907,2.2925,2.2931,2.2867,2.2867,2.2867,0,0,2.272,2.2728,2.274,2.2762,2.277,2.2788,2.2769,2.279,2.2803,2.279,2.2817,2.2821,2.2833,2.2863,2.2877,2.2868,2.2926,2.2908,2.2911,2.2912,2.2929,2.2935,2.294,2.2869,2.2869,2.2869,0,0,2.276,2.2769,2.2792,2.2801,2.2813,2.2815,2.2821,2.2831,2.2833,2.286,2.2851,2.2867,2.2896,2.2904,2.2912,2.2956,2.2948,2.2962,2.2985,2.3002,2.3007,2.3011,2.3026,2.3032,2.2965,2.2965,2.2965,0,2.2779,2.2808,2.2806,2.2827,2.2836,2.2827,2.285,2.2859,2.2876,2.2882,2.2872,2.2908,2.2915,2.2948,2.2959,2.2966,2.2972,2.296,2.3007,2.3011,2.3015,2.3029,2.3035,2.2967,2.2966,2.2966,2.2966,0,2.283,2.285,2.2868,2.2884,2.2896,2.2919,2.292,2.2932,2.2929,2.2931,2.2958,2.2967,2.2984,2.2991,2.2988,2.3023,2.3017,2.3007,2.2988,2.3023,2.3036,2.3041,2.2969,2.2968,2.2968,2.2967,0,0,2.2882,2.2898,2.2904,2.2912,2.2925,2.294,2.2962,2.2979,2.299,2.3002,2.302,2.3045,2.3036,2.3045,2.3043,2.3058,2.3092,2.3046,2.3046,2.3053,2.313,2.3137,2.3143,2.3087,2.3088,2.3089,2.3129,0,2.2922,2.296,2.296,2.2995,2.3013,2.3005,2.3024,2.3034,2.3037,2.3053,2.3056,2.3073,2.306,2.3066,2.3081,2.3085,2.3107,2.3082,2.3103,2.3104,2.3099,2.315,2.3158,2.3195,2.3134,2.3135,2.3136,0,2.2973,2.2987,2.3025,2.3036,2.3043,2.3061,2.3076,2.3091,2.3103,2.3104,2.3115,2.311,2.3132,2.3114,2.3145,2.3127,2.3136,2.3139,2.3141,2.3142,2.3121,2.3152,2.3207,2.3212,2.3144,2.3143,2.3143,0,2.3006,2.3034,2.3061,2.3067,2.3081,2.3093,2.31,2.311,2.312,2.3134,2.3141,2.3157,2.3165,2.3178,2.3178,2.3165,2.3208,2.319,2.3209,2.3209,2.3217,2.3217,2.3274,2.3225,2.3225,2.3225,2.3225,0,2.3049,2.3073,2.3075,2.3091,2.3117,2.3116,2.3142,2.3147,2.3156,2.3173,2.3166,2.3182,2.3182,2.3197,2.3198,2.3222,2.3226,2.3227,2.3227,2.3227,2.3227,2.3232,2.3229,2.3227,2.3226,2.3226,2.3226,0,2.3089,2.3092,2.312,2.3131,2.3135,2.3153,2.3162,2.3177,2.318,2.3201,2.3206,2.3211,2.3229,2.3231,2.3252,2.3252,2.3281,2.3279,2.3278,2.3277,2.3295,2.3293,2.3357,2.3365,2.3312,2.3312,2.3313,0,2.3116,2.3134,2.3147,2.3158,2.3165,2.3183,2.3193,2.3193,2.3205,2.3219,2.3233,2.3251,2.3265,2.3295,2.3299,2.3316,2.3313,2.3334,2.3315,2.3315,2.3312,2.331,2.3311,2.3337,2.3338,2.3338,2.3339,0,2.3164,2.3165,2.3181,2.3197,2.321,2.3223,2.3235,2.3245,2.3246,2.3259,2.3278,2.3289,2.3311,2.3329,2.3345,2.3351,2.3345,2.3345,2.335,2.335,2.3348,2.3348,2.3286,2.3343,2.3342,2.3342,2.3342,2.3342,2.3197,2.3213,2.3224,2.3242,2.3252,2.3263,2.3278,2.3283,2.3299,2.3317,2.3316,2.3337,2.3348,2.3369,2.3377,2.3392,2.3385,2.3393,2.3394,2.3396,2.3397,2.3346,2.3396,2.3395,2.3395,2.3395,2.3395,0,2.3244,2.3251,2.3268,2.3285,2.3299,2.3293,2.3306,2.3318,2.3337,2.3348,2.3362,2.3384,2.3401,2.3408,2.3425,2.3436,2.3434,2.3441,2.3439,2.344,2.3403,2.3397,2.3442,2.3442,2.3442,2.3442,2.3442,2.3442,2.3269,2.3294,2.3297,2.3326,2.3334,2.3354,2.3362,2.3373,2.3382,2.3406,2.3421,2.3425,2.3435,2.3452,2.3468,2.3469,2.3475,2.3483,2.3483,2.3448,2.3443,2.3439,2.3432,2.3484,2.3485,2.3519,2.3519,2.3519]},{"header":{"parameterUnit":"m.s-1","parameterCategory":1,"la1":30.2991,"la2":30.254,"lo1":-89.0895,"lo2":-89.0444,"dy":0.0017,"dx":0.0017,"nx":28,"ny":28,"refTime":"2024-02-05T03:00:00:Z","depth":0,"parameterNumber":3,"parameterNumberName":"V-component_of_WINDS"},"data":[0,0,0,0,0,0,0,0,0,0,0,0,0,0,0,0,0,0,0,0,0,0,0,0,0,0,0,0,0,0,0,0,0,0,0,0,0,0,0,0,0,0,0,0,0,0,0,0,0,0,0,0,0,0,0,0,0,0,-3.6067,-3.6068,0,-3.6234,-3.6236,-3.6238,-3.6232,-3.623,-3.6228,-3.6225,-3.6397,-3.6404,-3.6411,0,0,0,0,0,0,0,0,0,0,0,0,0,-3.5743,-3.5749,-3.6066,-3.6068,-3.6071,-3.6234,-3.6236,-3.6238,-3.6233,-3.623,-3.6227,-3.6224,-3.6395,-3.6403,-3.6411,0,0,0,0,0,0,0,0,0,0,0,0,0,-3.5895,-3.5751,-3.6066,-3.6087,-3.6091,-3.6233,-3.6236,-3.6239,-3.6233,-3.623,-3.6226,-3.6223,-3.6392,-3.6402,-3.6412,-3.6544,0,0,-3.6443,-3.6448,0,0,0,0,0,0,0,0,-3.5886,-3.5906,-3.6082,-3.6086,-3.609,-3.6209,-3.6185,-3.6341,-3.6234,-3.6179,-3.6225,-3.6221,-3.6337,-3.6352,-3.6391,-3.6552,-3.656,-3.6444,-3.645,-3.6455,-3.6457,0,0,0,0,0,0,0,-3.5875,-3.5899,-3.6133,-3.6085,-3.609,-3.6089,-3.6107,-3.6215,-3.6276,-3.6184,-3.6184,-3.6204,-3.6339,-3.6381,-3.6395,-3.6562,-3.6444,-3.6453,-3.6459,-3.6463,-3.6843,-3.6846,0,0,0,0,0,0,-3.586,-3.589,-3.6127,-3.6138,-3.5978,-3.6098,-3.6118,-3.6174,-3.6275,-3.6287,-3.6206,-3.6203,-3.6366,-3.6383,-3.6401,-3.6564,-3.6454,-3.6464,-3.647,-3.6839,-3.6844,-3.6848,0,0,0,0,0,0,-3.5853,-3.5881,-3.6121,-3.6014,-3.6045,-3.6107,-3.6171,-3.6179,-3.6222,-3.6292,-3.6303,-3.6238,-3.6364,-3.6387,-3.6509,-3.657,-3.6468,-3.6478,-3.6834,-3.684,-3.6846,-3.689,0,0,0,0,0,0,-3.5844,-3.5879,-3.5929,-3.6015,-3.605,-3.6226,-3.6175,-3.6185,-3.6239,-3.6236,-3.6325,-3.6336,-3.6363,-3.6494,-3.6519,-3.6582,-3.6486,-3.6829,-3.6837,-3.6844,-3.6883,-3.6896,-3.6908,0,0,0,0,0,-3.5833,-3.5935,-3.5932,-3.5961,-3.6115,-3.6229,-3.6249,-3.6278,-3.6244,-3.6296,-3.6341,-3.6333,-3.6559,-3.6507,-3.6535,-3.6601,-3.6825,-3.6834,-3.6843,-3.6877,-3.6894,-3.6907,0,0,0,0,0,0,-3.5854,-3.5946,-3.5944,-3.6077,-3.6145,-3.6228,-3.6294,-3.6294,-3.6373,-3.6367,-3.6399,-3.6419,-3.6542,-3.6584,-3.6524,-3.6735,-3.6688,-3.6703,-3.6704,-3.672,-3.6732,-3.672,-3.6494,0,0,0,0,0,-3.5874,-3.5959,-3.6035,-3.6145,-3.618,-3.6231,-3.6282,-3.6298,-3.637,-3.6399,-3.6453,-3.6524,-3.6611,-3.6668,-3.6751,-3.6889,-3.6909,-3.6948,-3.6961,-3.697,-3.6984,-3.7061,-3.708,-3.6878,-3.6878,-3.6877,0,0,-3.5916,-3.5977,-3.6029,-3.6151,-3.6206,-3.6294,-3.6255,-3.635,-3.6416,-3.6414,-3.6533,-3.6575,-3.6656,-3.6787,-3.6848,-3.6826,-3.7044,-3.6982,-3.6989,-3.6997,-3.7073,-3.7092,-3.7109,-3.6884,-3.6883,-3.6882,0,0,-3.6039,-3.6093,-3.6192,-3.6248,-3.6332,-3.6365,-3.6389,-3.6472,-3.6501,-3.6621,-3.6622,-3.6701,-3.6849,-3.6908,-3.6957,-3.7103,-3.71,-3.713,-3.7195,-3.727,-3.7286,-3.7301,-3.7355,-3.7374,-3.7142,-3.7142,-3.7142,0,-3.6082,-3.6215,-3.6242,-3.6339,-3.6393,-3.6395,-3.6496,-3.6548,-3.6655,-3.6693,-3.6667,-3.6855,-3.6909,-3.7055,-3.7091,-3.713,-3.7159,-3.712,-3.7282,-3.7296,-3.731,-3.7362,-3.7382,-3.7146,-3.7145,-3.7145,-3.7145,0,-3.6264,-3.6356,-3.6425,-3.6529,-3.6591,-3.6689,-3.6732,-3.6792,-3.6803,-3.684,-3.6963,-3.7029,-3.7127,-3.7162,-3.7173,-3.731,-3.7294,-3.7274,-3.7227,-3.7332,-3.7382,-3.7402,-3.715,-3.7149,-3.7148,-3.7147,0,0,-3.6405,-3.6523,-3.6549,-3.6597,-3.669,-3.6762,-3.686,-3.6956,-3.7008,-3.7081,-3.7166,-3.7292,-3.7275,-3.7331,-3.7349,-3.7415,-3.7529,-3.7387,-3.7389,-3.7413,-3.7686,-3.7702,-3.7724,-3.7527,-3.7531,-3.7534,-3.768,0,-3.6539,-3.6713,-3.6742,-3.6895,-3.6982,-3.6986,-3.7072,-3.7139,-3.7176,-3.7255,-3.7296,-3.7386,-3.7355,-3.739,-3.7455,-3.7501,-3.7585,-3.7491,-3.7607,-3.7611,-3.7588,-3.775,-3.7766,-3.7901,-3.7699,-3.7702,-3.7705,0,-3.6718,-3.6798,-3.696,-3.7043,-3.708,-3.7157,-3.7249,-3.7324,-3.74,-3.7423,-3.7486,-3.7497,-3.76,-3.7547,-3.7691,-3.7627,-3.7676,-3.7706,-3.7712,-3.7725,-3.7665,-3.7769,-3.7944,-3.7965,-3.7735,-3.7733,-3.7731,0,-3.6807,-3.6954,-3.7071,-3.7112,-3.7211,-3.7265,-3.7309,-3.7382,-3.7439,-3.7519,-3.7556,-3.7647,-3.7697,-3.7767,-3.7802,-3.776,-3.7944,-3.7894,-3.7967,-3.7966,-3.8007,-3.8004,-3.8194,-3.8036,-3.8035,-3.8035,-3.8034,0,-3.6955,-3.7054,-3.7113,-3.7185,-3.7297,-3.7329,-3.744,-3.7482,-3.7548,-3.7629,-3.7637,-3.7713,-3.7754,-3.7836,-3.7864,-3.798,-3.8002,-3.8024,-3.8031,-3.8025,-3.8022,-3.8058,-3.805,-3.804,-3.8039,-3.8038,-3.8037,0,-3.7074,-3.7116,-3.7244,-3.7328,-3.7352,-3.7431,-3.7503,-3.7574,-3.7611,-3.7713,-3.7739,-3.7798,-3.7895,-3.7937,-3.8057,-3.8076,-3.8209,-3.8208,-3.8183,-3.8186,-3.8257,-3.8251,-3.8479,-3.8511,-3.8329,-3.8331,-3.8332,0,-3.7166,-3.7243,-3.7335,-3.739,-3.7436,-3.7524,-3.7582,-3.7617,-3.7677,-3.7771,-3.7831,-3.7929,-3.8009,-3.8165,-3.8218,-3.831,-3.8312,-3.8386,-3.8326,-3.8318,-3.8316,-3.8311,-3.832,-3.8397,-3.8399,-3.84,-3.8402,0,-3.7325,-3.7343,-3.7426,-3.7518,-3.7587,-3.7661,-3.7733,-3.7777,-3.7824,-3.7891,-3.7991,-3.8053,-3.8176,-3.8274,-3.837,-3.8415,-3.8418,-3.842,-3.8442,-3.8437,-3.8421,-3.8433,-3.8215,-3.8415,-3.8413,-3.8413,-3.8412,-3.8411,-3.7435,-3.7504,-3.7581,-3.7674,-3.7732,-3.7799,-3.787,-3.7917,-3.8001,-3.8104,-3.8119,-3.8227,-3.8303,-3.8431,-3.8481,-3.8566,-3.8548,-3.8579,-3.8588,-3.8595,-3.8601,-3.8406,-3.8583,-3.8583,-3.8583,-3.8582,-3.8582,0,-3.7597,-3.7646,-3.7731,-3.7833,-3.7906,-3.7901,-3.7981,-3.8043,-3.8138,-3.8208,-3.8287,-3.8403,-3.8498,-3.8559,-3.8656,-3.8712,-3.8715,-3.8736,-3.8733,-3.8744,-3.8611,-3.8583,-3.8732,-3.8732,-3.8732,-3.8732,-3.8732,-3.8732,-3.769,-3.7807,-3.7834,-3.7981,-3.803,-3.8136,-3.8182,-3.8245,-3.8302,-3.8431,-3.851,-3.855,-3.8617,-3.8719,-3.8806,-3.8822,-3.8857,-3.888,-3.8895,-3.8769,-3.8753,-3.8739,-3.8713,-3.8887,-3.8887,-3.9021,-3.9023,-3.9024]}]]